Time,TemperatureF,DewpointF,PressureIn,WindDirection,WindDirectionDegrees,WindSpeedMPH,WindSpeedGustMPH,Humidity,HourlyPrecipIn,Conditions,Clouds,dailyrainin,SoftwareType,DateUTC
2013-03-22 00:12:00,65.7,59.4,29.30,WNW,292,3.2,-999.0,80,-99.99,,,0.00,Acu-Link.com,2013-03-22 06:12:00,
2013-03-22 00:27:00,65.7,59.4,29.29,WNW,292,3.2,-999.0,80,-99.99,,,0.00,Acu-Link.com,2013-03-22 06:27:00,
2013-03-22 00:43:00,65.8,59.8,29.29,WNW,292,2.7,-999.0,81,-99.99,,,0.00,Acu-Link.com,2013-03-22 06:43:00,
2013-03-22 00:58:00,65.8,59.8,29.29,WNW,292,0.0,-999.0,81,-99.99,,,0.00,Acu-Link.com,2013-03-22 06:58:00,
2013-03-22 01:13:00,65.8,59.8,29.28,WNW,292,1.1,-999.0,81,-99.99,,,0.00,Acu-Link.com,2013-03-22 07:13:00,
2013-03-22 01:29:00,65.8,59.8,29.29,WNW,292,0.0,-999.0,81,-99.99,,,0.00,Acu-Link.com,2013-03-22 07:29:00,
2013-03-22 01:44:00,65.8,60.1,29.29,WNW,292,1.7,-999.0,82,-99.99,,,0.00,Acu-Link.com,2013-03-22 07:44:00,
2013-03-22 01:59:00,65.8,60.1,29.28,WNW,292,3.2,-999.0,82,-99.99,,,0.00,Acu-Link.com,2013-03-22 07:59:00,
2013-03-22 02:14:00,65.8,60.1,29.28,WNW,292,2.7,-999.0,82,-99.99,,,0.00,Acu-Link.com,2013-03-22 08:14:00,
2013-03-22 02:30:00,65.8,60.1,29.27,WNW,292,0.0,-999.0,82,-99.99,,,0.00,Acu-Link.com,2013-03-22 08:30:00,
2013-03-22 02:45:00,65.7,60.0,29.28,WNW,292,1.1,-999.0,82,-99.99,,,0.00,Acu-Link.com,2013-03-22 08:45:00,
2013-03-22 03:00:00,65.7,60.4,29.27,WNW,292,0.0,-999.0,83,-99.99,,,0.00,Acu-Link.com,2013-03-22 09:00:00,
2013-03-22 03:15:00,65.5,60.2,29.28,WNW,292,0.0,-999.0,83,-99.99,,,0.00,Acu-Link.com,2013-03-22 09:15:00,
2013-03-22 03:31:00,65.5,60.2,29.27,WNW,292,0.0,-999.0,83,-99.99,,,0.00,Acu-Link.com,2013-03-22 09:31:00,
2013-03-22 04:01:00,65.3,60.3,29.27,WNW,292,0.0,-999.0,84,-99.99,,,0.00,Acu-Link.com,2013-03-22 10:01:00,
2013-03-22 04:16:00,65.1,60.1,29.28,WNW,292,0.0,-999.0,84,-99.99,,,0.00,Acu-Link.com,2013-03-22 10:16:00,
2013-03-22 04:32:00,65.1,60.1,29.29,WNW,292,0.0,-999.0,84,-99.99,,,0.00,Acu-Link.com,2013-03-22 10:32:00,
2013-03-22 04:47:00,65.1,60.5,29.31,WNW,292,0.0,-999.0,85,-99.99,,,0.00,Acu-Link.com,2013-03-22 10:47:00,
2013-03-22 05:02:00,65.1,60.5,29.31,WNW,292,0.0,-999.0,85,-99.99,,,0.00,Acu-Link.com,2013-03-22 11:02:00,
2013-03-22 05:18:00,65.1,60.5,29.32,WNW,292,0.0,-999.0,85,-99.99,,,0.00,Acu-Link.com,2013-03-22 11:18:00,
2013-03-22 05:33:00,65.1,60.5,29.33,WNW,292,0.0,-999.0,85,-99.99,,,0.00,Acu-Link.com,2013-03-22 11:33:00,
2013-03-22 05:48:00,65.1,60.5,29.33,WNW,292,0.0,-999.0,85,-99.99,,,0.00,Acu-Link.com,2013-03-22 11:48:00,
2013-03-22 06:04:00,65.1,60.5,29.34,WNW,292,0.0,-999.0,85,-99.99,,,0.00,Acu-Link.com,2013-03-22 12:04:00,
2013-03-22 06:19:00,64.9,60.3,29.35,WNW,292,0.0,-999.0,85,-99.99,,,0.00,Acu-Link.com,2013-03-22 12:19:00,
2013-03-22 06:34:00,62.6,51.1,29.38,WNW,292,0.0,-999.0,66,-99.99,,,0.00,Acu-Link.com,2013-03-22 12:34:00,
2013-03-22 06:50:00,59.0,46.0,29.41,WNW,292,3.7,-999.0,62,-99.99,,,0.00,Acu-Link.com,2013-03-22 12:50:00,
2013-03-22 07:05:00,56.1,44.1,29.42,WNW,292,5.8,-999.0,64,-99.99,,,0.00,Acu-Link.com,2013-03-22 13:05:00,
2013-03-22 07:20:00,54.5,43.8,29.44,WNW,292,0.0,-999.0,67,-99.99,,,0.00,Acu-Link.com,2013-03-22 13:20:00,
2013-03-22 07:35:00,53.1,43.6,29.45,WNW,292,1.7,-999.0,70,-99.99,,,0.00,Acu-Link.com,2013-03-22 13:35:00,
2013-03-22 07:51:00,52.0,43.3,29.47,WNW,292,0.0,-999.0,72,-99.99,,,0.00,Acu-Link.com,2013-03-22 13:51:00,
2013-03-22 08:21:00,51.1,43.5,29.47,WNW,292,0.0,-999.0,75,-99.99,,,0.00,Acu-Link.com,2013-03-22 14:21:00,
2013-03-22 08:36:00,51.1,43.8,29.47,WNW,292,2.2,-999.0,76,-99.99,,,0.00,Acu-Link.com,2013-03-22 14:36:00,
2013-03-22 08:52:00,51.3,44.0,29.49,WNW,292,0.0,-999.0,76,-99.99,,,0.00,Acu-Link.com,2013-03-22 14:52:00,
2013-03-22 09:07:00,51.1,43.8,29.50,WNW,292,0.0,-999.0,76,-99.99,,,0.00,Acu-Link.com,2013-03-22 15:07:00,
2013-03-22 09:22:00,51.1,43.8,29.50,WNW,292,1.1,-999.0,76,-99.99,,,0.00,Acu-Link.com,2013-03-22 15:22:00,
2013-03-22 09:37:00,51.1,43.8,29.50,WNW,292,2.7,-999.0,76,-99.99,,,0.00,Acu-Link.com,2013-03-22 15:37:00,
2013-03-22 09:52:00,50.9,44.0,29.51,WNW,292,0.0,-999.0,77,-99.99,,,0.00,Acu-Link.com,2013-03-22 15:52:00,
2013-03-22 10:08:00,50.9,44.0,29.51,WNW,292,2.2,-999.0,77,-99.99,,,0.00,Acu-Link.com,2013-03-22 16:08:00,
2013-03-22 10:23:00,50.9,44.3,29.52,WNW,292,0.0,-999.0,78,-99.99,,,0.00,Acu-Link.com,2013-03-22 16:23:00,
2013-03-22 10:38:00,50.9,44.3,29.51,WNW,292,0.0,-999.0,78,-99.99,,,0.00,Acu-Link.com,2013-03-22 16:38:00,
2013-03-22 10:54:00,51.1,44.5,29.51,WNW,292,3.2,-999.0,78,-99.99,,,0.00,Acu-Link.com,2013-03-22 16:54:00,
2013-03-22 11:09:00,51.1,44.5,29.51,WNW,292,0.0,-999.0,78,-99.99,,,0.00,Acu-Link.com,2013-03-22 17:09:00,
2013-03-22 11:24:00,51.1,44.5,29.52,WNW,292,0.0,-999.0,78,-99.99,,,0.00,Acu-Link.com,2013-03-22 17:24:00,
2013-03-22 11:40:00,51.6,45.0,29.52,WNW,292,1.7,-999.0,78,-99.99,,,0.00,Acu-Link.com,2013-03-22 17:40:00,
2013-03-22 11:55:00,51.6,45.0,29.53,WNW,292,0.0,-999.0,78,-99.99,,,0.00,Acu-Link.com,2013-03-22 17:55:00,
2013-03-22 12:10:00,51.6,45.0,29.53,WNW,292,0.0,-999.0,78,-99.99,,,0.00,Acu-Link.com,2013-03-22 18:10:00,
2013-03-22 12:26:00,51.8,45.2,29.53,WNW,292,2.2,-999.0,78,-99.99,,,0.00,Acu-Link.com,2013-03-22 18:26:00,
2013-03-22 12:56:00,51.6,45.0,29.53,WNW,292,0.0,-999.0,78,-99.99,,,0.00,Acu-Link.com,2013-03-22 18:56:00,
2013-03-22 13:11:00,51.4,44.8,29.53,WNW,292,0.0,-999.0,78,-99.99,,,0.00,Acu-Link.com,2013-03-22 19:11:00,
2013-03-22 13:27:00,51.4,44.8,29.52,WNW,292,0.0,-999.0,78,-99.99,,,0.00,Acu-Link.com,2013-03-22 19:27:00,
2013-03-22 13:42:00,51.4,44.8,29.51,WNW,292,0.0,-999.0,78,-99.99,,,0.00,Acu-Link.com,2013-03-22 19:42:00,
2013-03-22 13:57:00,51.6,44.6,29.51,WNW,292,0.0,-999.0,77,-99.99,,,0.00,Acu-Link.com,2013-03-22 19:57:00,
2013-03-22 14:12:00,51.8,44.8,29.51,WNW,292,0.0,-999.0,77,-99.99,,,0.00,Acu-Link.com,2013-03-22 20:12:00,
2013-03-22 14:28:00,52.0,45.0,29.50,WNW,292,0.0,-999.0,77,-99.99,,,0.00,Acu-Link.com,2013-03-22 20:28:00,
2013-03-22 14:43:00,52.0,45.0,29.50,WNW,292,1.7,-999.0,77,-99.99,,,0.00,Acu-Link.com,2013-03-22 20:43:00,
2013-03-22 14:58:00,51.6,44.6,29.50,WNW,292,0.0,-999.0,77,-99.99,,,0.00,Acu-Link.com,2013-03-22 20:58:00,
2013-03-22 15:14:00,51.6,44.6,29.50,WNW,292,2.7,-999.0,77,-99.99,,,0.00,Acu-Link.com,2013-03-22 21:14:00,
2013-03-22 15:29:00,51.6,44.6,29.51,WNW,292,0.0,-999.0,77,-99.99,,,0.00,Acu-Link.com,2013-03-22 21:29:00,
2013-03-22 15:44:00,51.6,44.6,29.52,WNW,292,0.0,-999.0,77,-99.99,,,0.00,Acu-Link.com,2013-03-22 21:44:00,
2013-03-22 16:00:00,51.6,44.6,29.52,WNW,292,0.0,-999.0,77,-99.99,,,0.00,Acu-Link.com,2013-03-22 22:00:00,
2013-03-22 16:15:00,51.4,44.4,29.53,WNW,292,0.0,-999.0,77,-99.99,,,0.00,Acu-Link.com,2013-03-22 22:15:00,
2013-03-22 16:30:00,51.1,44.5,29.54,WNW,292,0.0,-999.0,78,-99.99,,,0.00,Acu-Link.com,2013-03-22 22:30:00,
2013-03-22 16:46:00,51.1,44.5,29.53,WNW,292,0.0,-999.0,78,-99.99,,,0.00,Acu-Link.com,2013-03-22 22:46:00,
2013-03-22 17:01:00,51.1,44.8,29.53,WNW,292,0.0,-999.0,79,-99.99,,,0.00,Acu-Link.com,2013-03-22 23:01:00,
2013-03-22 17:31:00,51.1,44.5,29.54,WNW,292,0.0,-999.0,78,-99.99,,,0.00,Acu-Link.com,2013-03-22 23:31:00,
2013-03-22 17:46:00,51.1,44.5,29.54,WNW,292,0.0,-999.0,78,-99.99,,,0.00,Acu-Link.com,2013-03-22 23:46:00,
2013-03-22 18:02:00,50.9,44.6,29.55,WNW,292,0.0,-999.0,79,-99.99,,,0.00,Acu-Link.com,2013-03-23 00:02:00,
2013-03-22 18:17:00,50.9,44.6,29.56,WNW,292,0.0,-999.0,79,-99.99,,,0.00,Acu-Link.com,2013-03-23 00:17:00,
2013-03-22 18:32:00,50.9,44.6,29.55,WNW,292,0.0,-999.0,79,-99.99,,,0.00,Acu-Link.com,2013-03-23 00:32:00,
2013-03-22 18:48:00,50.9,45.0,29.56,WNW,292,0.0,-999.0,80,-99.99,,,0.00,Acu-Link.com,2013-03-23 00:48:00,
2013-03-22 19:03:00,50.9,45.0,29.55,WNW,292,0.0,-999.0,80,-99.99,,,0.00,Acu-Link.com,2013-03-23 01:03:00,
2013-03-22 19:18:00,50.9,45.0,29.54,WNW,292,0.0,-999.0,80,-99.99,,,0.00,Acu-Link.com,2013-03-23 01:18:00,
2013-03-22 19:34:00,50.9,45.3,29.55,WNW,292,0.0,-999.0,81,-99.99,,,0.00,Acu-Link.com,2013-03-23 01:34:00,
2013-03-22 19:49:00,50.7,45.1,29.55,WNW,292,0.0,-999.0,81,-99.99,,,0.00,Acu-Link.com,2013-03-23 01:49:00,
2013-03-22 20:04:00,50.7,45.4,29.56,WNW,292,0.0,-999.0,82,-99.99,,,0.00,Acu-Link.com,2013-03-23 02:04:00,
2013-03-22 20:20:00,50.7,45.4,29.58,WNW,292,0.0,-999.0,82,-99.99,,,0.00,Acu-Link.com,2013-03-23 02:20:00,
2013-03-22 20:35:00,50.7,45.1,29.59,WNW,292,0.0,-999.0,81,-99.99,,,0.00,Acu-Link.com,2013-03-23 02:35:00,
2013-03-22 20:50:00,50.5,44.9,29.59,WNW,292,0.0,-999.0,81,-99.99,,,0.00,Acu-Link.com,2013-03-23 02:50:00,
2013-03-22 21:06:00,50.4,44.8,29.60,WNW,292,0.0,-999.0,81,-99.99,,,0.00,Acu-Link.com,2013-03-23 03:06:00,
2013-03-22 21:21:00,50.4,44.8,29.59,WNW,292,0.0,-999.0,81,-99.99,,,0.00,Acu-Link.com,2013-03-23 03:21:00,
2013-03-22 21:37:00,50.4,44.8,29.59,WNW,292,1.7,-999.0,81,-99.99,,,0.00,Acu-Link.com,2013-03-23 03:37:00,
2013-03-22 21:52:00,50.4,45.1,29.59,WNW,292,0.0,-999.0,82,-99.99,,,0.00,Acu-Link.com,2013-03-23 03:52:00,
2013-03-22 22:22:00,50.4,45.1,29.59,WNW,292,0.0,-999.0,82,-99.99,,,0.00,Acu-Link.com,2013-03-23 04:22:00,
2013-03-22 22:38:00,50.4,45.1,29.58,WNW,292,0.0,-999.0,82,-99.99,,,0.00,Acu-Link.com,2013-03-23 04:38:00,
2013-03-22 22:53:00,50.4,45.4,29.57,WNW,292,0.0,-999.0,83,-99.99,,,0.00,Acu-Link.com,2013-03-23 04:53:00,
2013-03-22 23:08:00,50.2,45.2,29.56,WNW,292,0.0,-999.0,83,-99.99,,,0.00,Acu-Link.com,2013-03-23 05:08:00,
2013-03-22 23:24:00,50.2,45.2,29.58,WNW,292,0.0,-999.0,83,-99.99,,,0.00,Acu-Link.com,2013-03-23 05:24:00,
2013-03-22 23:39:00,50.2,44.9,29.59,WNW,292,0.0,-999.0,82,-99.99,,,0.00,Acu-Link.com,2013-03-23 05:39:00,
2013-03-22 23:54:00,50.2,44.9,29.57,WNW,292,0.0,-999.0,82,-99.99,,,0.00,Acu-Link.com,2013-03-23 05:54:00,